[[{"header":{"parameterUnit":"m.s-1","parameterCategory":1,"la1":30.2991,"la2":30.254,"lo1":-89.0895,"lo2":-89.0444,"dy":0.0017,"dx":0.0017,"nx":28,"ny":28,"refTime":"2025-08-24T21:00:00:Z","depth":0,"parameterNumber":2,"parameterNumberName":"U-component_of_WINDS"},"data":[0,0,0,0,0,0,0,0,0,0,0,0,0,0,0,0,0,0,0,0,0,0,0,0,0,0,0,0,0,0,0,0,0,0,0,0,0,0,0,0,0,0,0,0,0,0,0,0,0,0,0,0,0,0,0,0,0,0,-3.5965,-3.5965,0,-3.5942,-3.5942,-3.5942,-3.5834,-3.5832,-3.5829,-3.5827,-3.5806,-3.5808,-3.5809,0,0,0,0,0,0,0,0,0,0,0,0,0,-3.5918,-3.592,-3.5965,-3.5965,-3.5965,-3.5943,-3.5942,-3.5942,-3.5835,-3.5831,-3.5828,-3.5825,-3.5805,-3.5807,-3.581,0,0,0,0,0,0,0,0,0,0,0,0,0,-3.5922,-3.592,-3.5965,-3.5908,-3.5903,-3.5943,-3.5942,-3.5942,-3.5835,-3.5831,-3.5828,-3.5824,-3.5804,-3.5807,-3.581,-3.5903,0,0,-3.5818,-3.5819,0,0,0,0,0,0,0,0,-3.5922,-3.5924,-3.5917,-3.5912,-3.5906,-3.5887,-3.5918,-3.5929,-3.5836,-3.5861,-3.5827,-3.5822,-3.5836,-3.5836,-3.584,-3.5902,-3.5901,-3.5818,-3.582,-3.5821,-3.5822,0,0,0,0,0,0,0,-3.5922,-3.5924,-3.5956,-3.5917,-3.5911,-3.5885,-3.5881,-3.592,-3.587,-3.5859,-3.5851,-3.5849,-3.5833,-3.5838,-3.5839,-3.5901,-3.5818,-3.5821,-3.5822,-3.5824,-3.6039,-3.6043,0,0,0,0,0,0,-3.5929,-3.5924,-3.5957,-3.5956,-3.5905,-3.5889,-3.5885,-3.5897,-3.587,-3.5862,-3.5853,-3.5844,-3.5835,-3.5836,-3.5838,-3.5945,-3.5821,-3.5824,-3.5825,-3.6035,-3.604,-3.6045,0,0,0,0,0,0,-3.5928,-3.5933,-3.5958,-3.5938,-3.5939,-3.5894,-3.5909,-3.5899,-3.5904,-3.5865,-3.5856,-3.5867,-3.5832,-3.5834,-3.5888,-3.5943,-3.5825,-3.5828,-3.603,-3.6037,-3.6042,-3.6161,0,0,0,0,0,0,-3.5928,-3.5933,-3.5967,-3.5939,-3.5941,-3.6008,-3.5912,-3.5901,-3.5909,-3.5898,-3.5876,-3.5869,-3.5829,-3.5884,-3.589,-3.5944,-3.583,-3.6025,-3.6033,-3.604,-3.6152,-3.617,-3.6186,0,0,0,0,0,-3.5926,-3.6002,-3.597,-3.5974,-3.5982,-3.6011,-3.6011,-3.5964,-3.5914,-3.5948,-3.5923,-3.587,-3.5936,-3.5891,-3.5897,-3.5952,-3.6021,-3.6031,-3.604,-3.6144,-3.6166,-3.6186,0,0,0,0,0,0,-3.6038,-3.5997,-3.5961,-3.603,-3.6025,-3.5993,-3.6034,-3.5989,-3.5998,-3.5988,-3.5929,-3.5925,-3.5988,-3.5975,-3.5925,-3.6042,-3.597,-3.5981,-3.6047,-3.6068,-3.6085,-3.6086,-3.5832,0,0,0,0,0,-3.6071,-3.6097,-3.606,-3.6125,-3.6124,-3.608,-3.6091,-3.6054,-3.6047,-3.6044,-3.6023,-3.6019,-3.6039,-3.6053,-3.6069,-3.615,-3.6144,-3.6192,-3.6209,-3.6223,-3.6233,-3.6275,-3.6296,-3.6075,-3.6075,-3.6075,0,0,-3.6139,-3.612,-3.614,-3.6147,-3.6138,-3.6167,-3.6079,-3.6113,-3.6134,-3.6049,-3.6098,-3.6084,-3.6075,-3.6143,-3.6172,-3.6135,-3.6293,-3.6235,-3.6246,-3.6248,-3.6287,-3.6308,-3.6326,-3.6081,-3.608,-3.6079,0,0,-3.6276,-3.6265,-3.6317,-3.6311,-3.6299,-3.627,-3.6283,-3.6258,-3.6244,-3.6293,-3.623,-3.6255,-3.6291,-3.6287,-3.629,-3.6429,-3.638,-3.6436,-3.6525,-3.6567,-3.6584,-3.6599,-3.6649,-3.6667,-3.6446,-3.6446,-3.6447,0,-3.6362,-3.6402,-3.635,-3.6388,-3.6393,-3.6319,-3.6371,-3.6368,-3.6363,-3.6369,-3.6328,-3.6371,-3.636,-3.6426,-3.646,-3.6465,-3.6478,-3.6437,-3.6586,-3.6601,-3.6614,-3.666,-3.6679,-3.6453,-3.6452,-3.6452,-3.6451,0,-3.6508,-3.6537,-3.6581,-3.6577,-3.6588,-3.6634,-3.6589,-3.6606,-3.657,-3.6546,-3.6596,-3.6581,-3.6592,-3.6606,-3.6571,-3.6668,-3.6645,-3.6596,-3.6522,-3.6643,-3.6685,-3.6702,-3.6463,-3.646,-3.6458,-3.6457,0,0,-3.6714,-3.6681,-3.6698,-3.6696,-3.6679,-3.67,-3.6744,-3.6755,-3.6771,-3.6771,-3.6805,-3.6838,-3.6793,-3.6796,-3.676,-3.6798,-3.6908,-3.6744,-3.6743,-3.6774,-3.7014,-3.705,-3.7071,-3.6877,-3.688,-3.6882,-3.7015,0,-3.6845,-3.6915,-3.687,-3.6948,-3.6974,-3.6905,-3.6942,-3.6937,-3.6916,-3.6936,-3.6913,-3.6937,-3.6875,-3.6877,-3.6911,-3.6888,-3.6956,-3.6878,-3.6909,-3.691,-3.6911,-3.7094,-3.7131,-3.7257,-3.7031,-3.7034,-3.7036,0,-3.7006,-3.7012,-3.7093,-3.7071,-3.708,-3.7115,-3.7122,-3.7142,-3.7135,-3.7117,-3.7122,-3.7077,-3.7119,-3.7048,-3.7105,-3.7053,-3.7064,-3.7055,-3.7059,-3.7058,-3.6979,-3.7098,-3.7296,-3.7314,-3.7061,-3.7059,-3.7058,0,-3.7147,-3.7176,-3.7228,-3.7228,-3.7204,-3.723,-3.7222,-3.721,-3.722,-3.7227,-3.7233,-3.7245,-3.7252,-3.7263,-3.7223,-3.7175,-3.7286,-3.7211,-3.7273,-3.7274,-3.7297,-3.7296,-3.7499,-3.7307,-3.7307,-3.7306,-3.7306,0,-3.7297,-3.7349,-3.7291,-3.7322,-3.7379,-3.7328,-3.7386,-3.737,-3.7361,-3.7389,-3.7331,-3.7359,-3.7305,-3.7328,-3.7298,-3.735,-3.7354,-3.7341,-3.7332,-3.7345,-3.7347,-3.735,-3.734,-3.7311,-3.731,-3.7309,-3.7308,0,-3.7463,-3.7426,-3.7478,-3.7451,-3.7446,-3.7489,-3.7466,-3.7495,-3.7471,-3.7508,-3.7514,-3.7476,-3.75,-3.7462,-3.7482,-3.7462,-3.7534,-3.7513,-3.7536,-3.7529,-3.7592,-3.7586,-3.7803,-3.7829,-3.7622,-3.7624,-3.7626,0,-3.756,-3.7598,-3.7576,-3.759,-3.7585,-3.7609,-3.7619,-3.7571,-3.7584,-3.758,-3.761,-3.7629,-3.7641,-3.7684,-3.7659,-3.7674,-3.7652,-3.7727,-3.7654,-3.7666,-3.7652,-3.7649,-3.7653,-3.7741,-3.7744,-3.7746,-3.7748,0,-3.7737,-3.7717,-3.7733,-3.7743,-3.7756,-3.7762,-3.7764,-3.778,-3.7729,-3.7747,-3.7771,-3.7781,-3.7801,-3.7822,-3.7831,-3.7823,-3.7778,-3.7771,-3.7786,-3.7799,-3.7811,-3.7804,-3.7576,-3.7766,-3.7764,-3.7763,-3.7762,-3.7761,-3.787,-3.7901,-3.789,-3.791,-3.7907,-3.791,-3.7936,-3.7915,-3.7934,-3.7946,-3.7918,-3.7949,-3.7942,-3.795,-3.7947,-3.7972,-3.7939,-3.796,-3.7966,-3.7971,-3.7981,-3.7809,-3.7973,-3.7973,-3.7972,-3.7972,-3.7971,0,-3.8042,-3.8033,-3.8052,-3.8056,-3.8072,-3.8028,-3.8028,-3.8045,-3.8072,-3.807,-3.8084,-3.8112,-3.8131,-3.8109,-3.8124,-3.8148,-3.8128,-3.8154,-3.8151,-3.815,-3.801,-3.7995,-3.817,-3.817,-3.817,-3.817,-3.817,-3.817,-3.8134,-3.8183,-3.8163,-3.8211,-3.8201,-3.823,-3.8234,-3.8237,-3.8235,-3.8268,-3.8284,-3.8269,-3.8259,-3.8274,-3.829,-3.8283,-3.8291,-3.8325,-3.831,-3.8179,-3.816,-3.8141,-3.8127,-3.8327,-3.8327,-3.8448,-3.8449,-3.845]},{"header":{"parameterUnit":"m.s-1","parameterCategory":1,"la1":30.2991,"la2":30.254,"lo1":-89.0895,"lo2":-89.0444,"dy":0.0017,"dx":0.0017,"nx":28,"ny":28,"refTime":"2025-08-24T21:00:00:Z","depth":0,"parameterNumber":3,"parameterNumberName":"V-component_of_WINDS"},"data":[0,0,0,0,0,0,0,0,0,0,0,0,0,0,0,0,0,0,0,0,0,0,0,0,0,0,0,0,0,0,0,0,0,0,0,0,0,0,0,0,0,0,0,0,0,0,0,0,0,0,0,0,0,0,0,0,0,0,1.2711,1.2711,0,1.2723,1.2723,1.2723,1.2782,1.2784,1.2785,1.2786,1.2794,1.2793,1.2792,0,0,0,0,0,0,0,0,0,0,0,0,0,1.2735,1.2735,1.2711,1.2711,1.2711,1.2723,1.2723,1.2723,1.2782,1.2784,1.2785,1.2787,1.2795,1.2793,1.2792,0,0,0,0,0,0,0,0,0,0,0,0,0,1.2734,1.2734,1.2711,1.2742,1.2745,1.2723,1.2723,1.2723,1.2782,1.2784,1.2786,1.2788,1.2795,1.2793,1.2792,1.2739,0,0,1.2787,1.2786,0,0,0,0,0,0,0,0,1.2734,1.2733,1.2737,1.274,1.2743,1.2753,1.2735,1.2729,1.2781,1.2767,1.2786,1.2789,1.2779,1.2778,1.2776,1.274,1.274,1.2787,1.2786,1.2785,1.2784,0,0,0,0,0,0,0,1.2734,1.2732,1.2716,1.2737,1.2741,1.2754,1.2756,1.2734,1.2761,1.2769,1.2773,1.2774,1.2781,1.2777,1.2777,1.274,1.2787,1.2785,1.2784,1.2784,1.2662,1.266,0,0,0,0,0,0,1.273,1.2732,1.2715,1.2716,1.2744,1.2752,1.2755,1.2748,1.2761,1.2766,1.2772,1.2777,1.2779,1.2778,1.2777,1.2717,1.2785,1.2783,1.2782,1.2665,1.2662,1.266,0,0,0,0,0,0,1.273,1.2728,1.2715,1.2725,1.2725,1.275,1.2741,1.2747,1.2744,1.2764,1.2769,1.2764,1.2781,1.2779,1.2749,1.2718,1.2783,1.2781,1.2667,1.2664,1.2661,1.2595,0,0,0,0,0,0,1.2731,1.2728,1.2708,1.2724,1.2724,1.2687,1.274,1.2746,1.2741,1.2747,1.2758,1.2761,1.2782,1.2751,1.2747,1.2716,1.278,1.267,1.2666,1.2662,1.26,1.259,1.2581,0,0,0,0,0,1.2731,1.2688,1.2707,1.2705,1.2701,1.2685,1.2684,1.2711,1.2739,1.2719,1.2732,1.2761,1.2722,1.2747,1.2744,1.2712,1.2672,1.2667,1.2662,1.2604,1.2592,1.2581,0,0,0,0,0,0,1.2666,1.2691,1.2712,1.2673,1.2677,1.2695,1.2671,1.2697,1.2691,1.2696,1.2728,1.273,1.2695,1.2701,1.2728,1.2662,1.2702,1.2696,1.2659,1.2648,1.2638,1.2636,1.2778,0,0,0,0,0,1.2647,1.2633,1.2656,1.2619,1.262,1.2645,1.2639,1.266,1.2664,1.2665,1.2676,1.2678,1.2666,1.2658,1.2648,1.2602,1.2605,1.2578,1.2569,1.2561,1.2555,1.2531,1.2519,1.2643,1.2643,1.2643,0,0,1.2607,1.262,1.2608,1.2606,1.2611,1.2595,1.2646,1.2626,1.2614,1.2662,1.2633,1.2642,1.2646,1.2608,1.2591,1.2611,1.2522,1.2555,1.2548,1.2546,1.2524,1.2513,1.2502,1.264,1.264,1.2641,0,0,1.2527,1.2535,1.2506,1.2511,1.2519,1.2536,1.2529,1.2544,1.2552,1.2525,1.256,1.2546,1.2526,1.2527,1.2525,1.2449,1.2474,1.2445,1.2394,1.237,1.236,1.2352,1.2323,1.2313,1.2439,1.2439,1.2438,0,1.2476,1.2454,1.2487,1.2466,1.2463,1.2508,1.2478,1.2481,1.2484,1.2481,1.2505,1.2481,1.2487,1.2449,1.2431,1.2428,1.242,1.2442,1.236,1.2351,1.2344,1.2317,1.2306,1.2435,1.2435,1.2436,1.2436,0,1.2391,1.2376,1.2351,1.2355,1.2351,1.2325,1.2353,1.2344,1.2366,1.238,1.2352,1.2362,1.2355,1.2349,1.2368,1.2314,1.2326,1.2354,1.2394,1.2328,1.2303,1.2293,1.2429,1.2431,1.2432,1.2433,0,0,1.2266,1.2291,1.2281,1.2284,1.2298,1.2286,1.2263,1.2258,1.225,1.2251,1.2232,1.2215,1.2241,1.2239,1.226,1.224,1.2177,1.2271,1.2271,1.2252,1.2117,1.2095,1.2082,1.2196,1.2194,1.2193,1.2116,0,1.2188,1.2151,1.218,1.2137,1.2123,1.2167,1.2146,1.2152,1.2166,1.2155,1.217,1.2157,1.2194,1.2193,1.2175,1.2189,1.215,1.2195,1.2176,1.2175,1.2172,1.207,1.2045,1.1973,1.2107,1.2106,1.2104,0,1.2091,1.2091,1.2047,1.2064,1.206,1.2041,1.204,1.203,1.2037,1.2049,1.2048,1.2075,1.2052,1.2094,1.2063,1.2093,1.2088,1.2094,1.2092,1.2089,1.2134,1.2063,1.195,1.1939,1.209,1.2091,1.2092,0,1.2003,1.1992,1.1964,1.1965,1.1985,1.1971,1.1979,1.1989,1.1984,1.1983,1.1981,1.1976,1.1973,1.1969,1.1994,1.2022,1.196,1.2004,1.1968,1.1967,1.195,1.195,1.1834,1.195,1.195,1.195,1.195,0,1.1912,1.1882,1.1925,1.1907,1.1876,1.1911,1.1879,1.1891,1.1899,1.1884,1.1922,1.1907,1.1942,1.1931,1.195,1.1921,1.192,1.1928,1.1933,1.1923,1.1922,1.1919,1.1924,1.1947,1.1948,1.1948,1.1949,0,1.1807,1.1834,1.1807,1.1829,1.1834,1.181,1.1829,1.1813,1.1831,1.1812,1.1809,1.1836,1.1825,1.185,1.1842,1.1855,1.1814,1.1828,1.1811,1.1815,1.1777,1.178,1.1652,1.1637,1.1764,1.1763,1.1762,0,1.1745,1.1724,1.1746,1.1739,1.1745,1.1734,1.1731,1.1765,1.176,1.1768,1.1751,1.1743,1.1739,1.1718,1.1736,1.173,1.1743,1.1699,1.1742,1.1734,1.1741,1.1741,1.1739,1.1689,1.1688,1.1687,1.1686,0,1.1634,1.1649,1.1643,1.1643,1.1638,1.1639,1.1642,1.1635,1.1671,1.1663,1.1653,1.1649,1.1642,1.1634,1.1632,1.1639,1.1667,1.1673,1.1664,1.1652,1.1643,1.1647,1.1785,1.1674,1.1676,1.1676,1.1677,1.1677,1.1548,1.1531,1.1544,1.1537,1.1544,1.1546,1.1533,1.155,1.1543,1.1541,1.1562,1.1547,1.1556,1.1558,1.1562,1.155,1.157,1.1557,1.1554,1.155,1.1543,1.1647,1.155,1.155,1.1551,1.1551,1.1551,0,1.1437,1.1448,1.1441,1.1446,1.144,1.1471,1.1477,1.1469,1.1456,1.1463,1.1459,1.1448,1.144,1.1459,1.1454,1.1441,1.1454,1.1438,1.1439,1.144,1.1526,1.1534,1.1428,1.1428,1.1428,1.1428,1.1428,1.1428,1.1378,1.1352,1.1369,1.1347,1.1358,1.1346,1.1346,1.1349,1.1355,1.1341,1.1335,1.1349,1.136,1.1357,1.1351,1.1357,1.1353,1.1332,1.1342,1.1422,1.1434,1.1445,1.1452,1.1331,1.1331,1.1257,1.1256,1.1256]}]]